www.pogodaiklimat.ru

Погода и климат >> Архив погоды >> Узбекистан >> Жаслык


ПОГОДА в Жаслыке

  • Прогноз погоды в Жаслыке
  • Монитор погоды в Жаслыке
  • Климат города

АРХИВ ПОГОДЫ в Жаслыке

Время (UTC), дата Ветер
(напр.,м/с)
 
Видим.   Явления Облачность Т
(С)
Тd
(С)
f
(%)
Тe
(С)
Тes
(С)
Комфортность P
(гПа)
Po
(гПа)
Тmin
(С)
Tmax
(С)
R
(мм)
R24
(мм)
S
(см)
06 15.05 В 6 20 км ясно +21.5 -6.7 14 +20 +26 1017.3 1002.4 +7.5
09 15.05 В 7 20 км 1/0
[Ci sp]
+23.9 -7.1 12 +22 +27 комфорт 1016.9 1002.1
12 15.05 СВ 5 20 км 1/0
[Ci sp]
+24.5 -9.0 10 +22 +26 комфорт 1016.6 1001.8
15 15.05 СВ 4 20 км ясно +21.8 -9.8 11 +20 +20 1016.6 1001.7 +26.0
18 15.05 В 1 20 км ясно +13.2 -6.0 26 +14 +14 1017.5 1002.2 +26.0
21 15.05 С 1 20 км ясно +11.2 -5.7 30 +12 +12 1016.8 1001.4
00 16.05 С 2 20 км ясно +10.7 -6.0 30 +10 +10 1017.0 1001.5
03 16.05 С 1 20 км ясно +14.3 -4.7 26 +15 +19 1016.7 1001.4
06 16.05 В 1 20 км ясно +24.5 -7.8 11 +22 +39 комфорт 1015.1 1000.3 +10.1
09 16.05 СВ 3 20 км 6/6 1000 м
[Cu med, cong]
+26.7 -5.4 12 +24 +30 комфорт 1014.3 999.6
12 16.05 СЗ 3 20 км 8/8 1000 м
[Cu med, cong]
+28.4 -5.7 10 +25 +26 комфорт 1013.7 999.1
15 16.05 СЗ 1 20 км 5/5
[Cu med, cong]
+26.2 -5.4 12 +23 +24 комфорт 1013.2 998.5 +28.4
18 16.05 СЗ 1 20 км ясно +19.3 -3.3 21 +20 +20 1014.4 999.4 +28.4
21 16.05 С 1 20 км ясно +15.1 -5.4 24 +16 +16 1014.7 999.5
00 17.05 С 1 20 км ясно +13.2 -6.0 26 +14 +14 1015.4 1000.1
03 17.05 С 1 20 км 1/0
[Ac trans]
+17.5 -3.3 24 +19 +22 1016.0 1000.9
06 17.05 СВ 2 20 км ясно +27.3 -6.4 10 +24 +39 комфорт 1017.5 1002.8 +11.8
09 17.05 В 8 20 км 1/1 1000 м
[Cu hum]
+30.3 -5.4 9 +27 +29 жарко 1017.3 1002.7
12 17.05 СВ 6 20 км 1/1 600 м
[Cu med, cong]
+29.0 -8.0 8 +25 +28 комфорт 1017.3 1002.7
15 17.05 СВ 8 20 км ясно +24.8 -2.5 16 +23 +23 комфорт 1017.9 1003.0 +30.7
18 17.05 В 5 20 км ясно +18.7 -1.9 25 +18 +18 1019.6 1004.4 +30.7
21 17.05 ЮВ 4 20 км ясно +15.9 +1.1 37 +15 +15 1019.8 1004.5
00 18.05 штиль 0 20 км 9/9 600 м
[Cb cap]
+15.0 +0.9 38 +15 +15 1019.7 1004.4
03 18.05 Ю 5 20 км 8/0
[Ac trans]
+17.6 -2.2 26 +17 +18 1020.2 1005.0
06 18.05 Ю 5 20 км 5/0
[Ci sp]
+25.0 -3.0 15 +23 +30 комфорт 1020.2 1005.4 +14.6
09 18.05 ЮЗ 2 20 км 6/0
[Ci sp]
+28.2 -2.5 13 +25 +41 комфорт 1020.1 1005.4
12 18.05 С 2 20 км 8/8 1000 м
[Cu med, cong]
+28.7 -3.6 12 +26 +27 жарко 1018.5 1003.8
15 18.05 СЗ 2 20 км 10/10 600 м
[Cb cap]
+26.8 +1.3 19 +25 +25 комфорт 1017.9 1003.1 +29.9
18 18.05 С 1 20 км 10/10 600 м
[Cb cap]
+22.5 +4.8 32 +23 +23 комфорт 1018.9 1003.9 +29.9
21 18.05 В 1 20 км 9/0
[Ac trans]
+21.2 +4.6 34 +22 +22 комфорт 1018.5 1003.5
00 19.05 ЮВ 1 20 км 5/0
[Ac trans Ci fib]
+16.8 +5.9 49 +18 +18 1018.5 1003.2
03 19.05 В 2 20 км 8/0
[Ac trans]
+19.5 +6.1 42 +21 +23 комфорт 1019.0 1003.9
06 19.05 СЗ 1 20 км 8/0
[Ac trans]
+27.2 +5.0 24 +26 +35 жарко 1019.3 1004.6 +15.7
09 19.05 СВ 2 20 км 8/8 1000 м
[Cu med, cong]
+29.3 +5.1 22 +28 +31 жарко 1018.8 1004.2
12 19.05 В 13 20 км 9/9 1000 м
[Cu med, cong]
+28.4 +6.8 26 +28 +28 жарко 1017.7 1003.0
15 19.05 В 4 20 км 6/6 1000 м
[Cu med, cong]
+27.9 +5.3 24 +27 +27 жарко 1017.6 1002.9 +31.3
18 19.05 Ю 1 20 км ясно +21.8 +7.0 38 +23 +23 комфорт 1018.4 1003.4 +31.3
21 19.05 З 2 20 км ясно +20.3 +6.1 40 +22 +22 комфорт 1018.9 1003.8
00 20.05 В 1 20 км ясно +14.8 +6.4 57 +15 +15 1019.3 1003.9
03 20.05 В 1 20 км ясно +23.1 +7.4 36 +24 +28 комфорт 1019.2 1004.3
06 20.05 В 2 20 км ясно +29.4 +5.6 22 +28 +43 жарко 1018.0 1003.4 +14.6
09 20.05 В 3 20 км 8/8 1000 м
[Cu hum]
+29.7 +3.2 18 +28 +31 жарко 1017.5 1002.9
12 20.05 ЮЗ 1 20 км 6/6 1000 м
[Cu med, cong]
+32.1 +2.5 15 +29 +33 жарко 1016.0 1001.6
15 20.05 ЮВ 1 20 км 1/1 1000 м
[Cu med, cong]
+30.1 +3.2 18 +28 +28 жарко 1016.0 1001.5 +33.1
18 20.05 В 2 20 км ясно +23.7 +5.6 31 +24 +24 комфорт 1017.1 1002.3 +33.1
21 20.05 ЮВ 1 20 км ясно +20.2 +5.1 37 +22 +22 комфорт 1017.0 1002.0
00 21.05 штиль 0 20 км ясно +16.7 +5.0 46 +17 +17 1017.4 1002.2
03 21.05 СВ 1 20 км ясно +20.6 +6.1 39 +23 +27 комфорт 1017.0 1002.0
06 21.05 В 5 20 км ясно +31.5 +1.1 14 +29 +36 жарко 1018.3 1003.8 +15.1
09 21.05 В 4 20 км ясно +33.0 -1.2 11 +29 +42 жарко 1017.7 1003.3
12 21.05 В 5 20 км ясно +33.7 -1.7 10 +30 +34 жарко 1017.0 1002.6
15 21.05 В 7 20 км ясно +30.1 -0.7 14 +27 +27 жарко 1017.4 1002.8 +34.6
18 21.05 В 3 20 км ясно +21.8 -3.0 19 +21 +21 комфорт 1018.5 1003.5 +34.6
21 21.05 В 3 20 км ясно +17.6 -2.6 25 +18 +18 1018.9 1003.7
00 22.05 С 3 20 км ясно +13.4 -1.4 36 +13 +13 1019.0 1003.6

 

Местоположение метеостанции Жаслык (Каракалпакстан, Узбекистан): широта 43.88 долгота 57.52 высота над уровнем моря 128 м.

В архиве по умолчанию представлена погода в Жаслыке за последнюю неделю. Архивные данные за месяц целиком и за предыдущие месяцы, начиная с января 2011 года, Вы можете получить, выбрав интересующий диапазон дат из раскрывающегося списка и нажав кнопку "Ввод!".


*Определитесь, кто Вы:
робот инопланетянин человек

Внимание! Время в таблицах - всемирное. Для получения местного времени необходимо прибавить поправку, которая в Жаслыке равна 5 ч.

Смотрите также архив погоды в соседних городах и на ближайших метеорологических станциях:

Погода в Муйнаке (Каракалпакстан, Узбекистан) (98 км)
Погода в Каракалпакии (Каракалпакстан, Узбекистан) (144 км)
Погода в Кунграде (Каракалпакстан, Узбекистан) (144 км)
Погода в Саме (Мангистауская область, Казахстан) (202 км)
Погода в Чимбае (Каракалпакстан, Узбекистан) (213 км)
Погода в Кенеургенче (Дашогузский велаят, Туркменистан) (219 км)
Погода в Тахтакупыре (Каракалпакстан, Узбекистан) (231 км)
Погода в Нукусе (Каракалпакстан, Узбекистан) (233 км)
Погода в Тахиаташе (Каракалпакстан, Узбекистан) (236 км)
Погода в Бейнеу (Мангистауская область, Казахстан) (244 км)

Пояснения к столбцам:

Ветер - указаны скорость ветра в м/с - средняя за 10 мин, порывы в срок и между сроками (в фигурных скобках) и направление, откуда дует ветер: С - северный, СВ - северо-восточный, В - восточный, ЮВ - юго-восточный, Ю - южный, ЮЗ - юго-западный, З - западный, СЗ - северо-западный.
Видимость - горизонтальная дальность видимости в метрах или километрах. При видимости от 1 до 10 км при отсутствии осадков обычно наблюдается дымка, при ухудшении видимости до 1 км и менее - туман. В сухую погоду видимость может ухудшаться дымом, пылью или мглою.
Явления - указаны атмосферные явления, наблюдавшиеся в срок или в последний час перед сроком; фигурными скобками обозначены явления, наблюдавшиеся между сроками (за 1-3 часа до срока); квадратными скобками обозначены град или гололедные отложения с указанием их диаметра в мм.
Облачность - указаны через наклонную черту общая и нижняя облачность в баллах и высота нижней границы облаков в метрах; квадратными скобками обозначены формы облаков: Ci - перистые, Cs - перисто-слоистые, Cc - перисто-кучевые, Ac - высококучевые, As - высокослоистые, Sc - слоисто-кучевые, Ns - слоисто-дождевые, Cu - кучевые, Cb - кучево-дождевые. Подробнее классификацию облаков см. в Атласе облаков (PDF).
T - Температура воздуха - температура, измеренная на высоте 2 м над землей.
Td - Температура точки росы - температура, при понижении до которой содержащийся в воздухе водяной пар достигнет насыщения.
f - Относительная влажность воздуха - влажноcть воздуха, измеренная на высоте 2 м над землей.
Te - Эффективная температура - температура, которую ощущает одетый по сезону человек в тени. Характеристика душности погоды. При расчете учитывается влияние влажности воздуха и скорости ветра на теплоощущения человека.
Tes - Эффективная температура на солнце - температура, которую ощущает человек, с поправкой на солнечный нагрев. Характеристика знойности погоды. Зависит от высоты солнца над горизонтом, облачности и скорости ветра. Ночью, в пасмурную погоду, а также при ветре 12 м/с и более поправка равна нулю.
P - Атмосферное давление - приведенное к уровню моря атмосферное давление.
Po - Атмосферное давление - измеренное на уровне метеостанции атмосферное давление.
Tmin - Минимальная температура - минимум температуры воздуха на высоте 2 м над землей.
Tmax - Максимальная температура - максимум температуры воздуха на высоте 2 м над землей.
R - Количество осадков - Количество выпавших осадков за период времени, мм. При наведении курсора мыши на число - период времени, за который выпало указанное количество осадков.
R24 - Количество осадков - Количество выпавших осадков за 24 часа, мм.
S - Снежный покров - Высота снежного покрова, см. При наведении курсора мыши на число - состояние снежного покрова и степень покрытия местности в баллах.